Location: Calhoun
(43.0133°N, 88.1270°W)
Time: 01:28:38
(UTC+00:00)

ARIANE 6 FM1 Upper Stage - Visible Passes

Search period start: 12 June 2026 00:00
Search period end: 22 June 2026 00:00
Orbit: 528 x 599 km, 62.0° (Epoch: 11 June)

Date Brightness Start Highest point End Pass type
(mag) Time Alt. Az. Time Alt. Az. Time Alt. Az.
12 Jun 4.4 06:05:58 22° E 06:05:58 22° E 06:08:10 10° ENE visible
12 Jun 3.7 07:41:54 26° W 07:43:33 38° NW 07:47:25 10° NNE visible
13 Jun 3.9 06:05:01 31° E 06:05:01 31° E 06:07:48 10° NE visible
13 Jun 4.2 07:40:56 19° W 07:43:00 28° NW 07:46:34 10° NNE visible
14 Jun 3.3 06:04:00 46° E 06:04:00 46° E 06:07:16 10° NE visible
14 Jun 4.7 07:39:55 13° W 07:42:27 22° NW 07:45:40 10° NNE visible
15 Jun 2.7 06:02:54 70° ENE 06:02:54 70° ENE 06:06:39 10° NE visible
15 Jun 5.1 07:39:11 10° WNW 07:41:57 17° NW 07:44:42 10° N visible
16 Jun 2.7 06:01:44 71° WNW 06:01:50 72° NW 06:05:57 10° NE visible
16 Jun 5.3 07:39:22 10° WNW 07:41:30 14° NNW 07:43:35 10° N visible
17 Jun 4.9 04:24:34 14° E 04:24:34 14° E 04:25:28 10° ENE visible
17 Jun 3.3 06:00:29 44° W 06:01:10 50° NW 06:05:11 10° NNE visible
17 Jun 5.5 07:39:56 10° NW 07:41:04 11° NNW 07:42:10 10° NNW visible
18 Jun 4.3 04:23:12 21° E 04:23:12 21° E 04:25:13 10° ENE visible
18 Jun 4.0 05:59:06 27° W 06:00:33 36° NW 06:04:23 10° NNE visible
19 Jun 3.5 04:21:41 35° E 04:21:41 35° E 04:24:47 10° NE visible
19 Jun 4.5 05:57:34 16° W 05:59:58 27° NW 06:03:31 10° NNE visible
20 Jun 2.6 04:19:56 57° SE 04:20:08 57° SE 04:24:13 10° NE visible
20 Jun 5.0 05:56:13 10° W 05:59:25 21° NW 06:02:34 10° NNE visible
21 Jun 2.5 04:17:52 38° SSW 04:19:25 84° SE 04:23:34 10° NE visible
21 Jun 5.4 05:56:12 10° WNW 05:58:53 16° NW 06:01:33 10° N visible
